{"data":{"norad_id":66052,"epoch":"2026-05-25T03:06:24.103296Z","epoch_age_seconds":66956,"freshness":"FRESH","line1":"1 66052U 98067XR  26145.12944564  .00062224  00000+0  49666-3 0  9991","line2":"2 66052  51.6268  37.3060 0003500 100.1879 259.9513 15.70522259 34371","mean_motion":15.70522259,"eccentricity":0.00035,"inclination_deg":51.6268,"raan_deg":37.306,"arg_perigee_deg":100.1879,"mean_anomaly_deg":259.9513,"bstar":0.00049666,"rev_number":3437,"period_min":91.689244883221,"perigee_km":355.04593879001,"apogee_km":359.76081705456,"semimajor_km":6735.5403779223,"source":"CELESTRAK","updated_at":"2026-05-25T13:38:08.447037Z"}}